| time (UTC) | temp F | wind direction | speed MPH | gust MPH | rain 1hr in | rain 24hr in | rain mn in | humidity % | barometer mb |
| 20260506212001 | 59 | 323 | 3.0 | 0.0 | 0.00 | 0.00 | 0.00 | 87 | 1013.0 |
| 20260506211559 | 59 | 326 | 3.0 | 0.0 | 0.00 | 0.00 | 0.00 | 86 | 1013.0 |
| 20260506211030 | 59 | 339 | 4.0 | 0.0 | 0.00 | 0.00 | 0.00 | 87 | 1013.0 |
| 20260506210607 | 59 | 296 | 4.0 | 0.0 | 0.00 | 0.00 | 0.00 | 86 | 1012.9 |
| 20260506210055 | 60 | 315 | 3.0 | 0.0 | 0.00 | 0.00 | 0.00 | 86 | 1013.0 |
| 20260506205524 | 59 | 278 | 4.0 | 0.0 | 0.00 | 0.00 | 0.00 | 86 | 1013.0 |
| 20260506205103 | 59 | 300 | 4.0 | 0.0 | 0.00 | 0.00 | 0.00 | 86 | 1013.0 |
| 20260506204554 | 60 | 327 | 4.0 | 0.0 | 0.00 | 0.00 | 0.00 | 85 | 1013.0 |
| 20260506204025 | 60 | 333 | 4.0 | 0.0 | 0.00 | 0.00 | 0.00 | 86 | 1013.0 |
| 20260506203603 | 60 | 254 | 4.0 | 0.0 | 0.00 | 0.00 | 0.00 | 86 | 1013.0 |
| 20260506203010 | 60 | 325 | 4.0 | 0.0 | 0.00 | 0.00 | 0.00 | 85 | 1013.1 |
| 20260506202546 | 60 | 336 | 4.0 | 0.0 | 0.00 | 0.00 | 0.00 | 85 | 1013.1 |
| 20260506202016 | 60 | 334 | 3.0 | 0.0 | 0.00 | 0.00 | 0.00 | 85 | 1013.0 |
| 20260506201526 | 60 | 322 | 3.0 | 0.0 | 0.00 | 0.00 | 0.00 | 87 | 1012.8 |
| 20260506201100 | 60 | 342 | 4.0 | 0.0 | 0.00 | 0.00 | 0.00 | 85 | 1012.8 |
| 20260506200532 | 60 | 340 | 4.0 | 0.0 | 0.00 | 0.00 | 0.00 | 86 | 1012.8 |
| 20260506200037 | 60 | 336 | 4.0 | 0.0 | 0.00 | 0.00 | 0.00 | 85 | 1013.0 |
| 20260506195514 | 60 | 28 | 4.0 | 0.0 | 0.00 | 0.00 | 0.00 | 85 | 1012.9 |
| 20260506195053 | 61 | 338 | 5.0 | 0.0 | 0.00 | 0.00 | 0.00 | 85 | 1013.0 |
| 20260506194559 | 61 | 306 | 4.0 | 0.0 | 0.00 | 0.00 | 0.00 | 84 | 1012.9 |
| 20260506194035 | 62 | 315 | 4.0 | 0.0 | 0.00 | 0.00 | 0.00 | 84 | 1012.9 |
| 20260506193507 | 62 | 307 | 4.0 | 0.0 | 0.00 | 0.00 | 0.00 | 84 | 1012.8 |
| 20260506193103 | 62 | 313 | 4.0 | 0.0 | 0.00 | 0.00 | 0.00 | 84 | 1012.9 |
| 20260506192538 | 62 | 330 | 5.0 | 0.0 | 0.00 | 0.00 | 0.00 | 84 | 1012.9 |
| 20260506192015 | 62 | 340 | 5.0 | 0.0 | 0.00 | 0.00 | 0.00 | 83 | 1012.9 |
| 20260506191519 | 63 | 348 | 4.0 | 0.0 | 0.00 | 0.00 | 0.00 | 83 | 1013.0 |
| 20260506191055 | 63 | 330 | 4.0 | 0.0 | 0.00 | 0.00 | 0.00 | 83 | 1013.0 |
| 20260506190531 | 64 | 322 | 3.0 | 0.0 | 0.00 | 0.00 | 0.00 | 83 | 1012.8 |
| 20260506190036 | 64 | 324 | 4.0 | 0.0 | 0.00 | 0.00 | 0.00 | 84 | 1012.7 |
| 20260506185506 | 64 | 338 | 4.0 | 0.0 | 0.00 | 0.00 | 0.00 | 85 | 1012.6 |
| 20260506185046 | 64 | 301 | 3.0 | 0.0 | 0.00 | 0.00 | 0.00 | 85 | 1012.6 |
| 20260506184534 | 64 | 286 | 4.0 | 0.0 | 0.00 | 0.00 | 0.00 | 85 | 1012.6 |
| 20260506184007 | 65 | 346 | 4.0 | 0.0 | 0.00 | 0.00 | 0.00 | 84 | 1012.5 |
| 20260506183546 | 65 | 344 | 4.0 | 0.0 | 0.00 | 0.00 | 0.00 | 84 | 1012.6 |
| 20260506183035 | 65 | 355 | 5.0 | 0.0 | 0.00 | 0.00 | 0.00 | 83 | 1012.6 |
| 20260506182507 | 66 | 338 | 5.0 | 0.0 | 0.00 | 0.00 | 0.00 | 81 | 1012.6 |
| 20260506182045 | 67 | 323 | 4.0 | 0.0 | 0.00 | 0.00 | 0.00 | 81 | 1012.6 |
| 20260506181536 | 68 | 342 | 3.0 | 0.0 | 0.00 | 0.00 | 0.00 | 79 | 1012.4 |
| 20260506181007 | 69 | 329 | 3.0 | 0.0 | 0.00 | 0.00 | 0.00 | 79 | 1012.4 |
| 20260506180545 | 69 | 355 | 2.0 | 0.0 | 0.00 | 0.00 | 0.00 | 79 | 1012.3 |
| 20260506180047 | 69 | 355 | 2.0 | 0.0 | 0.00 | 0.00 | 0.00 | 80 | 1012.3 |
| 20260506175521 | 69 | 338 | 2.0 | 0.0 | 0.00 | 0.00 | 0.00 | 79 | 1012.3 |
| 20260506175108 | 70 | 337 | 2.0 | 0.0 | 0.00 | 0.00 | 0.00 | 78 | 1012.2 |
| 20260506174556 | 70 | 321 | 2.0 | 0.0 | 0.00 | 0.00 | 0.00 | 79 | 1012.1 |
| 20260506174024 | 69 | 24 | 2.0 | 0.0 | 0.00 | 0.00 | 0.00 | 80 | 1012.1 |
| 20260506173602 | 69 | 54 | 2.0 | 0.0 | 0.00 | 0.00 | 0.00 | 80 | 1012.0 |
| 20260506173115 | 68 | 73 | 2.0 | 0.0 | 0.00 | 0.00 | 0.00 | 81 | 1011.9 |
| 20260506172523 | 67 | 66 | 2.0 | 0.0 | 0.00 | 0.00 | 0.00 | 82 | 1011.9 |
| 20260506172105 | 67 | 80 | 2.0 | 0.0 | 0.00 | 0.00 | 0.00 | 82 | 1011.9 |
| 20260506171606 | 67 | 62 | 2.0 | 0.0 | 0.00 | 0.00 | 0.00 | 82 | 1011.8 |
| 20260506171039 | 66 | 136 | 3.0 | 0.0 | 0.00 | 0.00 | 0.00 | 81 | 1011.9 |
| 20260506170517 | 66 | 70 | 3.0 | 0.0 | 0.00 | 0.00 | 0.00 | 82 | 1011.9 |
| 20260506170001 | 66 | 126 | 3.0 | 0.0 | 0.00 | 0.00 | 0.00 | 84 | 1011.9 |
| 20260506165539 | 66 | 96 | 3.0 | 0.0 | 0.00 | 0.00 | 0.00 | 86 | 1011.8 |
| 20260506165018 | 65 | 86 | 3.0 | 0.0 | 0.00 | 0.00 | 0.00 | 87 | 1011.9 |
| 20260506164521 | 64 | 77 | 2.0 | 0.0 | 0.00 | 0.00 | 0.00 | 89 | 1011.9 |
| 20260506164055 | 63 | 71 | 2.0 | 0.0 | 0.00 | 0.00 | 0.00 | 89 | 1012.0 |
| 20260506163530 | 63 | 97 | 3.0 | 0.0 | 0.00 | 0.00 | 0.00 | 90 | 1012.3 |
| 20260506163034 | 62 | 70 | 3.0 | 0.0 | 0.00 | 0.00 | 0.00 | 91 | 1012.4 |
| 20260506162510 | 61 | 72 | 3.0 | 0.0 | 0.00 | 0.00 | 0.00 | 92 | 1012.5 |
| 20260506162043 | 60 | 144 | 2.0 | 0.0 | 0.00 | 0.00 | 0.00 | 92 | 1012.5 |
| 20260506161533 | 60 | 71 | 2.0 | 0.0 | 0.00 | 0.00 | 0.00 | 92 | 1012.0 |
| 20260506161009 | 59 | 342 | 2.0 | 0.0 | 0.00 | 0.00 | 0.00 | 92 | 1012.4 |
| 20260506160542 | 59 | 318 | 3.0 | 0.0 | 0.00 | 0.00 | 0.00 | 92 | 1013.0 |
| 20260506160046 | 59 | 338 | 4.0 | 0.0 | 0.00 | 0.00 | 0.00 | 92 | 1013.3 |
| 20260506155518 | 60 | 327 | 4.0 | 0.0 | 0.00 | 0.00 | 0.00 | 92 | 1013.3 |
| 20260506155058 | 60 | 327 | 4.0 | 0.0 | 0.00 | 0.00 | 0.00 | 92 | 1013.4 |
| 20260506154545 | 60 | 344 | 6.0 | 0.0 | 0.00 | 0.00 | 0.00 | 92 | 1013.6 |
| 20260506154022 | 60 | 340 | 5.0 | 0.0 | 0.00 | 0.00 | 0.00 | 92 | 1013.9 |
| 20260506153559 | 60 | 348 | 4.0 | 0.0 | 0.00 | 0.00 | 0.00 | 92 | 1013.8 |
| 20260506153105 | 61 | 345 | 5.0 | 0.0 | 0.00 | 0.00 | 0.00 | 92 | 1013.4 |
| 20260506152538 | 61 | 5 | 5.0 | 0.0 | 0.00 | 0.00 | 0.00 | 92 | 1013.1 |
| 20260506152011 | 61 | 312 | 5.0 | 0.0 | 0.00 | 0.00 | 0.00 | 91 | 1013.2 |
| 20260506151603 | 62 | 348 | 5.0 | 0.0 | 0.00 | 0.00 | 0.00 | 92 | 1013.3 |
| 20260506151037 | 62 | 338 | 4.0 | 0.0 | 0.00 | 0.00 | 0.00 | 91 | 1012.8 |
| 20260506150512 | 62 | 340 | 4.0 | 0.0 | 0.00 | 0.00 | 0.00 | 91 | 1012.6 |
| 20260506150109 | 63 | 328 | 4.0 | 0.0 | 0.00 | 0.00 | 0.00 | 91 | 1012.3 |
| 20260506145539 | 63 | 360 | 4.0 | 0.0 | 0.00 | 0.00 | 0.00 | 91 | 1011.7 |
| 20260506145014 | 63 | 333 | 3.0 | 0.0 | 0.00 | 0.00 | 0.00 | 91 | 1011.8 |
| 20260506144529 | 63 | 340 | 3.0 | 0.0 | 0.00 | 0.00 | 0.00 | 91 | 1011.5 |
| 20260506144050 | 64 | 343 | 4.0 | 0.0 | 0.00 | 0.00 | 0.00 | 91 | 1011.4 |
| 20260506143526 | 64 | 294 | 5.0 | 0.0 | 0.00 | 0.00 | 0.00 | 91 | 1011.6 |
| 20260506143030 | 64 | 349 | 5.0 | 0.0 | 0.00 | 0.00 | 0.00 | 91 | 1011.5 |
| 20260506142505 | 65 | 335 | 4.0 | 0.0 | 0.00 | 0.00 | 0.00 | 91 | 1011.5 |
| 20260506142044 | 65 | 350 | 4.0 | 0.0 | 0.00 | 0.00 | 0.00 | 91 | 1011.2 |
| 20260506141551 | 66 | 350 | 3.0 | 0.0 | 0.00 | 0.00 | 0.00 | 91 | 1010.8 |
| 20260506141024 | 66 | 336 | 3.0 | 0.0 | 0.00 | 0.00 | 0.00 | 91 | 1010.8 |
| 20260506140605 | 67 | 11 | 3.0 | 0.0 | 0.00 | 0.00 | 0.00 | 91 | 1010.6 |
| 20260506140004 | 67 | 342 | 3.0 | 0.0 | 0.00 | 0.00 | 0.00 | 91 | 1010.3 |
| 20260506135539 | 67 | 335 | 3.0 | 0.0 | 0.00 | 0.00 | 0.00 | 90 | 1010.8 |
| 20260506135016 | 68 | 348 | 3.0 | 0.0 | 0.00 | 0.00 | 0.00 | 90 | 1010.6 |
| 20260506134516 | 70 | 336 | 2.0 | 0.0 | 0.00 | 0.00 | 0.00 | 89 | 1010.3 |
| 20260506134054 | 72 | 9 | 2.0 | 0.0 | 0.00 | 0.00 | 0.00 | 91 | 1010.3 |
| 20260506133523 | 74 | 155 | 1.0 | 0.0 | 0.00 | 0.00 | 0.00 | 91 | 1009.7 |
| 20260506133029 | 74 | 155 | 0.0 | 0.0 | 0.00 | 0.00 | 0.00 | 91 | 1009.8 |
| 20260506132605 | 74 | 155 | 0.0 | 0.0 | 0.00 | 0.00 | 0.00 | 91 | 1009.8 |
| 20260506132041 | 74 | 155 | 0.0 | 0.0 | 0.00 | 0.00 | 0.00 | 91 | 1009.8 |
| 20260506131548 | 74 | 155 | 0.0 | 0.0 | 0.00 | 0.00 | 0.00 | 91 | 1009.8 |
| 20260506131017 | 73 | 155 | 0.0 | 0.0 | 0.00 | 0.00 | 0.00 | 91 | 1009.7 |
| 20260506130551 | 73 | 155 | 0.0 | 0.0 | 0.00 | 0.00 | 0.00 | 91 | 1009.5 |
| 20260506130137 | 73 | 155 | 0.0 | 0.0 | 0.00 | 0.00 | 0.00 | 91 | 1009.3 |
| 20260506125528 | 73 | 155 | 0.0 | 0.0 | 0.00 | 0.00 | 0.00 | 91 | 1009.2 |
| 20260506125001 | 73 | 155 | 0.0 | 0.0 | 0.00 | 0.00 | 0.00 | 91 | 1009.3 |
| 20260506124504 | 73 | 155 | 0.0 | 0.0 | 0.00 | 0.00 | 0.00 | 91 | 1009.2 |
| 20260506124047 | 72 | 155 | 0.0 | 0.0 | 0.00 | 0.00 | 0.00 | 91 | 1009.1 |
| 20260506123519 | 72 | 155 | 0.0 | 0.0 | 0.00 | 0.00 | 0.00 | 91 | 1009.1 |
| 20260506123035 | 72 | 155 | 0.0 | 0.0 | 0.00 | 0.00 | 0.00 | 91 | 1009.1 |
| 20260506122603 | 72 | 155 | 0.0 | 0.0 | 0.00 | 0.00 | 0.00 | 91 | 1009.1 |
| 20260506122034 | 72 | 155 | 0.0 | 0.0 | 0.00 | 0.00 | 0.00 | 92 | 1008.9 |
| 20260506121550 | 72 | 155 | 0.0 | 0.0 | 0.00 | 0.00 | 0.00 | 92 | 1008.9 |
| 20260506121013 | 72 | 155 | 0.0 | 0.0 | 0.00 | 0.00 | 0.00 | 92 | 1008.9 |
| 20260506120551 | 72 | 155 | 0.0 | 0.0 | 0.00 | 0.00 | 0.00 | 92 | 1008.9 |
| 20260506120052 | 72 | 155 | 0.0 | 0.0 | 0.00 | 0.00 | 0.00 | 92 | 1008.9 |
| 20260506115528 | 72 | 155 | 0.0 | 0.0 | 0.00 | 0.00 | 0.00 | 92 | 1008.9 |
| 20260506115102 | 73 | 155 | 0.0 | 0.0 | 0.00 | 0.00 | 0.00 | 92 | 1008.8 |
| 20260506114509 | 73 | 155 | 0.0 | 0.0 | 0.00 | 0.00 | 0.00 | 92 | 1008.8 |
| 20260506114040 | 73 | 155 | 0.0 | 0.0 | 0.00 | 0.00 | 0.00 | 92 | 1008.8 |
| 20260506113514 | 73 | 155 | 0.0 | 0.0 | 0.00 | 0.00 | 0.00 | 92 | 1008.8 |
| 20260506113020 | 73 | 155 | 0.0 | 0.0 | 0.00 | 0.00 | 0.00 | 92 | 1008.8 |
| 20260506112559 | 73 | 155 | 1.0 | 0.0 | 0.00 | 0.00 | 0.00 | 92 | 1008.8 |
| 20260506112028 | 73 | 155 | 1.0 | 0.0 | 0.00 | 0.00 | 0.00 | 91 | 1008.9 |
| 20260506111534 | 73 | 155 | 1.0 | 0.0 | 0.00 | 0.00 | 0.00 | 91 | 1008.8 |
| 20260506111015 | 74 | 155 | 1.0 | 0.0 | 0.00 | 0.00 | 0.00 | 91 | 1008.8 |
| 20260506110551 | 74 | 157 | 1.0 | 0.0 | 0.00 | 0.00 | 0.00 | 91 | 1008.8 |
| 20260506110056 | 74 | 156 | 1.0 | 0.0 | 0.00 | 0.00 | 0.00 | 92 | 1008.8 |
| 20260506105529 | 74 | 156 | 1.0 | 0.0 | 0.00 | 0.00 | 0.00 | 92 | 1008.8 |
| 20260506105105 | 74 | 157 | 1.0 | 0.0 | 0.00 | 0.00 | 0.00 | 92 | 1008.8 |
| 20260506104600 | 74 | 157 | 0.0 | 0.0 | 0.00 | 0.00 | 0.00 | 92 | 1008.8 |
| 20260506104025 | 74 | 157 | 0.0 | 0.0 | 0.00 | 0.00 | 0.00 | 92 | 1008.8 |
| 20260506103501 | 74 | 157 | 0.0 | 0.0 | 0.00 | 0.00 | 0.00 | 92 | 1008.7 |
| 20260506103007 | 74 | 157 | 0.0 | 0.0 | 0.00 | 0.00 | 0.00 | 92 | 1008.7 |
| 20260506102545 | 74 | 157 | 0.0 | 0.0 | 0.00 | 0.00 | 0.00 | 91 | 1008.6 |
| 20260506102019 | 74 | 157 | 1.0 | 0.0 | 0.00 | 0.00 | 0.00 | 91 | 1008.6 |
| 20260506101522 | 74 | 157 | 1.0 | 0.0 | 0.00 | 0.00 | 0.00 | 91 | 1008.5 |
| 20260506101059 | 74 | 157 | 1.0 | 0.0 | 0.00 | 0.00 | 0.00 | 91 | 1008.5 |
| 20260506100530 | 74 | 157 | 1.0 | 0.0 | 0.00 | 0.00 | 0.00 | 91 | 1008.3 |
| 20260506100031 | 74 | 157 | 1.0 | 0.0 | 0.00 | 0.00 | 0.00 | 91 | 1008.3 |
| 20260506095504 | 74 | 157 | 2.0 | 0.0 | 0.00 | 0.00 | 0.00 | 91 | 1008.3 |
| 20260506095043 | 74 | 157 | 2.0 | 0.0 | 0.00 | 0.00 | 0.00 | 91 | 1008.2 |
| 20260506094534 | 74 | 148 | 3.0 | 0.0 | 0.00 | 0.00 | 0.00 | 91 | 1008.2 |
| 20260506094010 | 75 | 148 | 3.0 | 0.0 | 0.00 | 0.00 | 0.00 | 90 | 1008.1 |
| 20260506093547 | 75 | 146 | 3.0 | 0.0 | 0.00 | 0.00 | 0.00 | 90 | 1008.0 |
| 20260506093036 | 75 | 148 | 2.0 | 0.0 | 0.00 | 0.00 | 0.00 | 90 | 1008.0 |
| 20260506092505 | 75 | 148 | 2.0 | 0.0 | 0.00 | 0.00 | 0.00 | 89 | 1008.0 |
| 20260506092048 | 75 | 148 | 3.0 | 0.0 | 0.00 | 0.00 | 0.00 | 89 | 1008.0 |
| 20260506091536 | 75 | 148 | 3.0 | 0.0 | 0.00 | 0.00 | 0.00 | 89 | 1007.9 |
| 20260506091014 | 75 | 155 | 2.0 | 0.0 | 0.00 | 0.00 | 0.00 | 89 | 1007.9 |
| 20260506090546 | 75 | 90 | 2.0 | 0.0 | 0.00 | 0.00 | 0.00 | 89 | 1007.9 |
| 20260506090039 | 75 | 90 | 1.0 | 0.0 | 0.00 | 0.00 | 0.00 | 89 | 1007.9 |
| 20260506085513 | 75 | 144 | 1.0 | 0.0 | 0.00 | 0.00 | 0.00 | 89 | 1007.9 |
| 20260506085053 | 75 | 144 | 2.0 | 0.0 | 0.00 | 0.00 | 0.00 | 89 | 1007.8 |
| 20260506084600 | 75 | 144 | 3.0 | 0.0 | 0.00 | 0.00 | 0.00 | 89 | 1007.7 |
| 20260506084027 | 75 | 142 | 3.0 | 0.0 | 0.00 | 0.00 | 0.00 | 89 | 1007.9 |
| 20260506083504 | 75 | 142 | 2.0 | 0.0 | 0.00 | 0.00 | 0.00 | 89 | 1007.9 |
| 20260506083058 | 75 | 142 | 2.0 | 0.0 | 0.00 | 0.00 | 0.00 | 89 | 1007.9 |
| 20260506082527 | 75 | 142 | 2.0 | 0.0 | 0.00 | 0.00 | 0.00 | 89 | 1007.8 |
| 20260506082006 | 75 | 142 | 3.0 | 0.0 | 0.00 | 0.00 | 0.00 | 89 | 1007.8 |
| 20260506081512 | 75 | 158 | 4.0 | 0.0 | 0.00 | 0.00 | 0.00 | 89 | 1007.8 |
| 20260506081046 | 75 | 144 | 4.0 | 0.0 | 0.00 | 0.00 | 0.00 | 89 | 1007.8 |
| 20260506080518 | 75 | 132 | 2.0 | 0.0 | 0.00 | 0.00 | 0.00 | 89 | 1007.8 |
| 20260506073032 | 75 | 118 | 3.0 | 0.0 | 0.00 | 0.00 | 0.00 | 89 | 1007.9 |
| 20260506072509 | 75 | 180 | 4.0 | 0.0 | 0.00 | 0.00 | 0.00 | 89 | 1007.9 |
| 20260506072047 | 75 | 158 | 5.0 | 0.0 | 0.00 | 0.00 | 0.00 | 89 | 1007.9 |
| 20260506071537 | 75 | 138 | 4.0 | 0.0 | 0.00 | 0.00 | 0.00 | 89 | 1008.0 |
| 20260506071014 | 75 | 142 | 4.0 | 0.0 | 0.00 | 0.00 | 0.00 | 89 | 1007.9 |
| 20260506070552 | 75 | 140 | 4.0 | 0.0 | 0.00 | 0.00 | 0.00 | 89 | 1007.8 |
| 20260506062032 | 76 | 142 | 5.0 | 0.0 | 0.00 | 0.00 | 0.00 | 88 | 1007.6 |
| 20260506061545 | 76 | 192 | 5.0 | 0.0 | 0.00 | 0.00 | 0.00 | 88 | 1007.7 |
| 20260506061017 | 76 | 167 | 5.0 | 0.0 | 0.00 | 0.00 | 0.00 | 89 | 1007.6 |
| 20260506060555 | 76 | 150 | 6.0 | 0.0 | 0.00 | 0.00 | 0.00 | 89 | 1007.7 |
| 20260506051036 | 76 | 136 | 4.0 | 0.0 | 0.00 | 0.00 | 0.00 | 88 | 1007.8 |
| 20260506050510 | 76 | 135 | 5.0 | 0.0 | 0.00 | 0.00 | 0.00 | 89 | 1007.8 |
| 20260506045022 | 76 | 138 | 5.0 | 0.0 | 0.00 | 0.00 | 0.00 | 88 | 1007.8 |
| 20260506044543 | 76 | 148 | 5.0 | 0.0 | 0.00 | 0.00 | 0.00 | 88 | 1007.8 |
| 20260506044106 | 76 | 158 | 6.0 | 0.0 | 0.00 | 0.00 | 0.00 | 88 | 1007.7 |
| 20260506043540 | 76 | 146 | 6.0 | 0.0 | 0.00 | 0.00 | 0.00 | 88 | 1007.7 |
| 20260506043043 | 76 | 119 | 5.0 | 0.0 | 0.00 | 0.00 | 0.00 | 88 | 1007.8 |
| 20260506042513 | 76 | 145 | 3.0 | 0.0 | 0.00 | 0.00 | 0.00 | 88 | 1007.8 |
| 20260506042052 | 76 | 145 | 3.0 | 0.0 | 0.00 | 0.00 | 0.00 | 88 | 1007.9 |
| 20260506041539 | 76 | 135 | 4.0 | 0.0 | 0.00 | 0.00 | 0.00 | 88 | 1007.8 |
| 20260506041018 | 76 | 148 | 3.0 | 0.0 | 0.00 | 0.00 | 0.00 | 87 | 1007.8 |
| 20260506040550 | 76 | 163 | 3.0 | 0.0 | 0.00 | 0.00 | 0.00 | 87 | 1007.7 |
| 20260506040050 | 77 | 178 | 4.0 | 0.0 | 0.00 | 0.00 | 0.00 | 87 | 1007.7 |
| 20260506035523 | 77 | 144 | 4.0 | 0.0 | 0.00 | 0.00 | 0.00 | 86 | 1007.5 |
| 20260506035105 | 77 | 142 | 4.0 | 0.0 | 0.00 | 0.00 | 0.00 | 86 | 1007.6 |
| 20260506034506 | 77 | 148 | 4.0 | 0.0 | 0.00 | 0.00 | 0.00 | 86 | 1007.5 |
| 20260506034041 | 77 | 144 | 4.0 | 0.0 | 0.00 | 0.00 | 0.00 | 85 | 1007.4 |
| 20260506033516 | 77 | 143 | 4.0 | 0.0 | 0.00 | 0.00 | 0.00 | 84 | 1007.3 |
| 20260506033025 | 78 | 135 | 4.0 | 0.0 | 0.00 | 0.00 | 0.00 | 84 | 1007.2 |
| 20260506032552 | 78 | 147 | 3.0 | 0.0 | 0.00 | 0.00 | 0.00 | 84 | 1007.2 |
| 20260506032028 | 78 | 151 | 3.0 | 0.0 | 0.00 | 0.00 | 0.00 | 83 | 1007.2 |
| 20260506031544 | 78 | 146 | 3.0 | 0.0 | 0.00 | 0.00 | 0.00 | 83 | 1007.1 |
| 20260506031007 | 78 | 146 | 2.0 | 0.0 | 0.00 | 0.00 | 0.00 | 83 | 1007.0 |
| 20260506030548 | 78 | 146 | 2.0 | 0.0 | 0.00 | 0.00 | 0.00 | 82 | 1007.0 |
| 20260506030051 | 78 | 146 | 3.0 | 0.0 | 0.00 | 0.00 | 0.00 | 82 | 1006.8 |
| 20260506025521 | 78 | 146 | 3.0 | 0.0 | 0.00 | 0.00 | 0.00 | 82 | 1006.8 |
| 20260506025057 | 78 | 146 | 3.0 | 0.0 | 0.00 | 0.00 | 0.00 | 82 | 1006.8 |
| 20260506024603 | 78 | 146 | 3.0 | 0.0 | 0.00 | 0.00 | 0.00 | 82 | 1006.7 |
| 20260506024035 | 78 | 138 | 3.0 | 0.0 | 0.00 | 0.00 | 0.00 | 82 | 1006.5 |
| 20260506023508 | 78 | 153 | 3.0 | 0.0 | 0.00 | 0.00 | 0.00 | 82 | 1006.4 |
| 20260506023013 | 78 | 153 | 3.0 | 0.0 | 0.00 | 0.00 | 0.00 | 82 | 1006.4 |
| 20260506022548 | 78 | 161 | 3.0 | 0.0 | 0.00 | 0.00 | 0.00 | 81 | 1006.3 |
| 20260506022021 | 78 | 146 | 3.0 | 0.0 | 0.00 | 0.00 | 0.00 | 82 | 1006.2 |
| 20260506021524 | 78 | 146 | 2.0 | 0.0 | 0.00 | 0.00 | 0.00 | 82 | 1006.1 |
| 20260506021103 | 78 | 146 | 2.0 | 0.0 | 0.00 | 0.00 | 0.00 | 81 | 1006.1 |
| 20260506020536 | 78 | 146 | 1.0 | 0.0 | 0.00 | 0.00 | 0.00 | 81 | 1006.0 |
| 20260506020037 | 79 | 146 | 1.0 | 0.0 | 0.00 | 0.00 | 0.00 | 80 | 1006.0 |
| 20260506015507 | 79 | 146 | 1.0 | 0.0 | 0.00 | 0.00 | 0.00 | 80 | 1006.0 |
| 20260506015050 | 79 | 146 | 1.0 | 0.0 | 0.00 | 0.00 | 0.00 | 79 | 1006.0 |
| 20260506014548 | 79 | 146 | 2.0 | 0.0 | 0.00 | 0.00 | 0.00 | 79 | 1005.9 |
| 20260506014020 | 80 | 146 | 3.0 | 0.0 | 0.00 | 0.00 | 0.00 | 79 | 1005.8 |
| 20260506013556 | 80 | 148 | 2.0 | 0.0 | 0.00 | 0.00 | 0.00 | 78 | 1005.8 |
| 20260506013043 | 80 | 148 | 2.0 | 0.0 | 0.00 | 0.00 | 0.00 | 78 | 1005.8 |
| 20260506012516 | 80 | 148 | 3.0 | 0.0 | 0.00 | 0.00 | 0.00 | 77 | 1005.7 |
| 20260506012102 | 80 | 137 | 3.0 | 0.0 | 0.00 | 0.00 | 0.00 | 77 | 1005.6 |
| 20260506011547 | 81 | 166 | 3.0 | 0.0 | 0.00 | 0.00 | 0.00 | 76 | 1005.6 |
| 20260506011020 | 81 | 167 | 3.0 | 0.0 | 0.00 | 0.00 | 0.00 | 76 | 1005.5 |
| 20260506010554 | 81 | 136 | 4.0 | 0.0 | 0.00 | 0.00 | 0.00 | 75 | 1005.6 |
| 20260506010054 | 81 | 136 | 4.0 | 0.0 | 0.00 | 0.00 | 0.00 | 74 | 1005.5 |
| 20260506005519 | 81 | 152 | 4.0 | 0.0 | 0.00 | 0.00 | 0.00 | 74 | 1005.5 |
| 20260506005101 | 82 | 134 | 5.0 | 0.0 | 0.00 | 0.00 | 0.00 | 73 | 1005.5 |
| 20260506004604 | 82 | 132 | 4.0 | 0.0 | 0.00 | 0.00 | 0.00 | 73 | 1005.5 |
| 20260506004037 | 82 | 148 | 4.0 | 0.0 | 0.00 | 0.00 | 0.00 | 73 | 1005.5 |
| 20260506003517 | 82 | 141 | 4.0 | 0.0 | 0.00 | 0.00 | 0.00 | 73 | 1005.6 |
| 20260506003023 | 82 | 152 | 4.0 | 0.0 | 0.00 | 0.00 | 0.00 | 72 | 1005.5 |
| 20260506002558 | 83 | 135 | 4.0 | 0.0 | 0.00 | 0.00 | 0.00 | 72 | 1005.5 |
| 20260506002034 | 83 | 151 | 4.0 | 0.0 | 0.00 | 0.00 | 0.00 | 72 | 1005.6 |
| 20260506001536 | 83 | 127 | 4.0 | 0.0 | 0.00 | 0.00 | 0.00 | 72 | 1005.6 |
| 20260506001009 | 83 | 142 | 4.0 | 0.0 | 0.00 | 0.00 | 0.00 | 72 | 1005.5 |
| 20260506000547 | 83 | 146 | 5.0 | 0.0 | 0.00 | 0.00 | 0.00 | 72 | 1005.6 |
| 20260506000054 | 83 | 152 | 4.0 | 0.0 | 0.00 | 0.00 | 0.00 | 71 | 1005.6 |
| 20260505235523 | 83 | 136 | 4.0 | 0.0 | 0.00 | 0.00 | 0.00 | 71 | 1005.7 |
| 20260505235102 | 83 | 133 | 4.0 | 0.0 | 0.00 | 0.00 | 0.00 | 71 | 1005.6 |
| 20260505234502 | 83 | 136 | 4.0 | 0.0 | 0.00 | 0.00 | 0.00 | 71 | 1005.6 |
| 20260505234040 | 83 | 136 | 5.0 | 0.0 | 0.00 | 0.00 | 0.00 | 70 | 1005.6 |
| 20260505233510 | 83 | 148 | 5.0 | 0.0 | 0.00 | 0.00 | 0.00 | 70 | 1005.5 |
| 20260505233015 | 83 | 151 | 6.0 | 0.0 | 0.00 | 0.00 | 0.00 | 70 | 1005.5 |
| 20260505232550 | 83 | 135 | 6.0 | 0.0 | 0.00 | 0.00 | 0.00 | 69 | 1005.4 |
| 20260505232029 | 83 | 165 | 5.0 | 0.0 | 0.00 | 0.00 | 0.00 | 69 | 1005.2 |
| 20260505231532 | 83 | 172 | 4.0 | 0.0 | 0.00 | 0.00 | 0.00 | 69 | 1005.2 |
| 20260505231005 | 84 | 152 | 5.0 | 0.0 | 0.00 | 0.00 | 0.00 | 68 | 1005.2 |
| 20260505230543 | 84 | 140 | 6.0 | 0.0 | 0.00 | 0.00 | 0.00 | 68 | 1005.2 |
| 20260505230040 | 84 | 194 | 6.0 | 0.0 | 0.00 | 0.00 | 0.00 | 68 | 1005.1 |
| 20260505225510 | 84 | 138 | 6.0 | 0.0 | 0.00 | 0.00 | 0.00 | 68 | 1005.0 |
| 20260505225049 | 84 | 140 | 6.0 | 0.0 | 0.00 | 0.00 | 0.00 | 69 | 1005.0 |
| 20260505224555 | 84 | 145 | 7.0 | 0.0 | 0.00 | 0.00 | 0.00 | 69 | 1004.9 |
| 20260505224028 | 84 | 121 | 6.0 | 0.0 | 0.00 | 0.00 | 0.00 | 68 | 1005.0 |
| 20260505223503 | 84 | 130 | 5.0 | 0.0 | 0.00 | 0.00 | 0.00 | 69 | 1005.1 |
| 20260505223005 | 84 | 147 | 5.0 | 0.0 | 0.00 | 0.00 | 0.00 | 69 | 1005.2 |
| 20260505222541 | 84 | 144 | 5.0 | 0.0 | 0.00 | 0.00 | 0.00 | 68 | 1005.1 |
| 20260505222012 | 84 | 157 | 6.0 | 0.0 | 0.00 | 0.00 | 0.00 | 68 | 1005.0 |
| 20260505221603 | 84 | 129 | 6.0 | 0.0 | 0.00 | 0.00 | 0.00 | 68 | 1004.9 |
| 20260505221035 | 85 | 128 | 4.0 | 0.0 | 0.00 | 0.00 | 0.00 | 68 | 1004.9 |
| 20260505220514 | 85 | 140 | 6.0 | 0.0 | 0.00 | 0.00 | 0.00 | 68 | 1005.0 |
| 20260505220019 | 84 | 142 | 8.0 | 0.0 | 0.00 | 0.00 | 0.00 | 69 | 1005.1 |
| 20260505215557 | 85 | 140 | 7.0 | 0.0 | 0.00 | 0.00 | 0.00 | 67 | 1005.1 |
| 20260505215027 | 85 | 137 | 6.0 | 0.0 | 0.00 | 0.00 | 0.00 | 68 | 1005.2 |
| 20260505214529 | 85 | 141 | 6.0 | 0.0 | 0.00 | 0.00 | 0.00 | 68 | 1005.2 |
| 20260505214003 | 85 | 130 | 6.0 | 0.0 | 0.00 | 0.00 | 0.00 | 68 | 1005.2 |
| 20260505213543 | 85 | 166 | 5.0 | 0.0 | 0.00 | 0.00 | 0.00 | 67 | 1005.2 |
| 20260505213036 | 85 | 151 | 6.0 | 0.0 | 0.00 | 0.00 | 0.00 | 68 | 1005.3 |
| 20260505212513 | 85 | 142 | 6.0 | 0.0 | 0.00 | 0.00 | 0.00 | 67 | 1005.5 |
| 20260505212048 | 86 | 120 | 6.0 | 0.0 | 0.00 | 0.00 | 0.00 | 68 | 1005.5 |